Volver al catálogo

ARIANE 5 DEB

SYLDA

ActivoGTO
NORAD 32390·DEBRIS·🇫🇷 France

Lanzado Dec 21, 2007 desde Guiana Space Centre

Loading…

TLE

EnvejeciendoSource: Space-Track

Época: Sep 14, 2026, 17:35 UTC

1 32390U 07063D   26257.73272074 -.00000094  00000-0 -65183-3 0  9998
2 32390   5.3298 127.0379 7161128 305.4643 333.2016  2.27011757154736

Sigue ARIANE 5 DEB en tiempo real con AllMySat

Download on the App Store